Location: Unspecified
(43.7492°N, 0.0000°E)
Time: 05:05:45
(UTC+00:00)

Explorer 11/Cluster Stage 4 - All Passes

Search period start: 04 April 2026 00:00
Search period end: 14 April 2026 00:00
Orbit: 463 x 1175 km, 28.8° (Epoch: 29 March)

Date Brightness Start Highest point End Pass type
(mag) Time Alt. Az. Time Alt. Az. Time Alt. Az.
4 Apr - 16:34:44 10° SSW 16:37:28 13° S 16:39:58 10° SE daylight
4 Apr - 18:21:17 10° SW 18:24:09 14° S 18:26:45 10° SSE daylight
5 Apr - 16:09:29 10° SSW 16:12:49 15° S 16:15:51 10° SE daylight
5 Apr - 17:56:13 10° SW 17:59:34 16° S 18:02:35 10° SSE daylight
6 Apr - 15:44:17 10° SSW 15:48:07 16° S 15:51:37 10° SE daylight
6 Apr - 17:31:07 10° SW 17:34:57 17° S 17:38:22 10° SE daylight
6 Apr - 19:20:42 10° SSW 19:21:27 10° SSW 19:22:08 10° SSW visible
7 Apr - 15:19:07 10° SSW 15:23:23 17° S 15:27:18 10° SE daylight
7 Apr - 17:06:01 10° SW 17:10:17 19° S 17:14:04 10° SE daylight
7 Apr - 18:55:07 10° SW 18:56:50 11° SSW 18:58:28 10° S daylight
8 Apr - 14:53:58 10° SSW 14:58:38 18° S 15:02:54 10° SE daylight
8 Apr - 16:40:54 10° SW 16:45:35 20° S 16:49:44 10° SE daylight
8 Apr - 18:29:49 10° SW 18:32:12 12° SSW 18:34:25 10° S daylight
9 Apr - 12:45:57 10° SSE 12:46:52 10° SSE 12:47:47 10° SSE daylight
9 Apr - 14:28:52 10° SSW 14:33:50 19° S 14:38:25 10° SE daylight
9 Apr - 16:15:48 10° SW 16:20:51 21° S 16:25:20 10° SE daylight
9 Apr - 18:04:36 10° SW 18:07:32 14° SSW 18:10:14 10° S daylight
10 Apr - 12:20:24 10° SSE 12:22:02 11° SSE 12:23:39 10° SE daylight
10 Apr - 14:03:47 10° SSW 14:09:00 20° S 14:13:53 10° SE daylight
10 Apr - 15:50:43 10° SW 15:56:04 22° S 16:00:53 10° SE daylight
10 Apr - 17:39:24 10° SW 17:42:49 15° SSW 17:45:58 10° SSE daylight
11 Apr - 11:55:12 10° S 11:57:10 11° SSE 11:59:09 10° SE daylight
11 Apr - 13:38:45 10° SSW 13:44:08 21° S 13:49:16 10° SE daylight
11 Apr - 15:25:38 10° SW 15:31:15 23° S 15:36:22 10° SE daylight
11 Apr - 17:14:15 10° SW 17:18:04 16° SSW 17:21:36 10° SSE daylight
12 Apr - 11:30:10 10° S 11:32:18 11° SSE 11:34:28 10° SE daylight
12 Apr - 13:13:44 10° SW 13:19:15 21° SSE 13:24:35 10° ESE daylight
12 Apr - 15:00:35 10° SW 15:06:24 24° S 15:11:46 10° SE daylight
12 Apr - 16:49:06 10° SW 16:53:18 16° SSW 16:57:10 10° SSE daylight
13 Apr - 11:05:14 10° S 11:07:26 11° SSE 11:09:37 10° SE daylight
13 Apr - 12:48:47 10° SW 12:54:20 22° SSE 12:59:49 10° ESE daylight
13 Apr - 14:35:34 10° SW 14:41:31 25° S 14:47:07 10° SE daylight
13 Apr - 16:23:59 10° WSW 16:28:29 17° SSW 16:32:39 10° SSE daylight
